Weather History for Liberal, KS

Change the Weather History Date:

Sunday, February 3, 2013

  Actual Average Record
Temperature  
Mean Temperature 42 °F -  
Max Temperature 62 °F 49 °F 74 °F (1962)
Min Temperature 21 °F 21 °F -9 °F (1989)
Degree Days  
Heating Degree Days 24    
Moisture  
Dew Point 20 °F    
Average Humidity 46    
Maximum Humidity 74    
Minimum Humidity 20    
Precipitation  
Precipitation 0.00 in - - ()
Sea Level Pressure  
Sea Level Pressure 30.06 in    
Wind  
Wind Speed 10 mph (SSW)    
Max Wind Speed 28 mph    
Max Gust Speed 34 mph    
Visibility 10 miles    
Events      
Averages and records for this station are not official NWS values.
T = Trace of Precipitation, MM = Missing Value Source: NWS Daily Summary

Daily Weather History Graph

Daily Weather History Graph

Search for Another Location

Airport:

Trip Planner

Search our weather history database for the weather conditions in past years. The results will help you decide how hot, cold, wet, or windy it might be!

Date:

Astronomy

Feb. 03, 2013 Rise Set
Actual Time 7:44 AM CST 6:11 PM CST
Civil Twilight 7:17 AM CST 6:38 PM CST
Nautical Twilight 6:46 AM CST 7:09 PM CST
Astronomical Twilight 6:15 AM CST 7:40 PM CST
Moon 1:13 AM CST (2/3) 11:50 AM CST (2/3)
Length of Visible Light 11h 21m
Length of Day
10h 26m
Waning Gibbous, 48% of the Moon is Illuminated
Feb 3
Waning Gibbous
Feb 10
New
Feb 17
First Quarter
Feb 25
Full
Mar 4
Last Quarter

Hourly Weather History & Observations

Time (CST) Temp. Windchill Dew Point Humidity Pressure Visibility Wind Dir Wind Speed Gust Speed Precip Events Conditions
12:15 AM 30.2 °F 25.4 °F 15.8 °F 55% 30.29 in 10.0 mi SW 4.6 mph - N/A   Clear
12:35 AM 30.2 °F 23.4 °F 15.8 °F 55% 30.28 in 10.0 mi SW 6.9 mph - N/A   Clear
12:55 AM 30.2 °F 22.6 °F 17.6 °F 60% 30.28 in 10.0 mi West 8.1 mph - N/A   Clear
1:15 AM 30.2 °F 21.9 °F 17.6 °F 60% 30.28 in 10.0 mi West 9.2 mph - N/A   Clear
1:35 AM 28.4 °F 19.7 °F 17.6 °F 64% 30.27 in 10.0 mi WSW 9.2 mph - N/A   Clear
1:55 AM 28.4 °F 23.3 °F 15.8 °F 59% 30.27 in 10.0 mi WSW 4.6 mph - N/A   Clear
2:15 AM 30.2 °F 22.6 °F 17.6 °F 60% 30.27 in 10.0 mi NE 8.1 mph - N/A   Clear
2:35 AM 30.2 °F 24.3 °F 17.6 °F 60% 30.27 in 10.0 mi NNE 5.8 mph - N/A   Clear
2:55 AM 28.4 °F - 15.8 °F 59% 30.27 in 10.0 mi Calm Calm - N/A   Clear
3:15 AM 26.6 °F 21.2 °F 14.0 °F 59% 30.26 in 10.0 mi ESE 4.6 mph - N/A   Clear
3:35 AM 28.4 °F 22.2 °F 17.6 °F 64% 30.25 in 10.0 mi SE 5.8 mph - N/A   Clear
3:55 AM 26.6 °F 18.2 °F 15.8 °F 64% 30.25 in 10.0 mi SSE 8.1 mph - N/A   Clear
4:15 AM 26.6 °F 19.1 °F 17.6 °F 69% 30.24 in 10.0 mi SSE 6.9 mph - N/A   Clear
4:35 AM 26.6 °F 19.1 °F 15.8 °F 64% 30.24 in 10.0 mi SSE 6.9 mph - N/A   Clear
4:55 AM 26.6 °F 19.1 °F 17.6 °F 69% 30.23 in 10.0 mi SSE 6.9 mph - N/A   Clear
5:15 AM 26.6 °F 17.5 °F 15.8 °F 64% 30.22 in 10.0 mi South 9.2 mph - N/A   Clear
5:35 AM 26.6 °F 16.8 °F 15.8 °F 64% 30.22 in 10.0 mi South 10.4 mph - N/A   Clear
5:55 AM 26.6 °F 17.5 °F 15.8 °F 64% 30.22 in 10.0 mi South 9.2 mph - N/A   Clear
6:15 AM 26.6 °F 19.1 °F 15.8 °F 64% 30.21 in 10.0 mi South 6.9 mph - N/A   Clear
6:35 AM 26.6 °F 19.1 °F 15.8 °F 64% 30.21 in 10.0 mi SSE 6.9 mph - N/A   Clear
6:55 AM 24.8 °F 19.1 °F 14.0 °F 64% 30.20 in 10.0 mi South 4.6 mph - N/A   Clear
7:15 AM 24.8 °F 19.1 °F 14.0 °F 64% 30.21 in 10.0 mi SSW 4.6 mph - N/A   Clear
7:35 AM 23.0 °F 15.8 °F 14.0 °F 68% 30.21 in 10.0 mi SSW 5.8 mph - N/A   Clear
7:55 AM 21.2 °F 12.6 °F 12.2 °F 68% 30.20 in 10.0 mi South 6.9 mph - N/A   Clear
8:15 AM 23.0 °F 17.0 °F 15.8 °F 74% 30.20 in 10.0 mi South 4.6 mph - N/A   Clear
8:35 AM 26.6 °F 18.2 °F 17.6 °F 69% 30.20 in 10.0 mi South 8.1 mph - N/A   Clear
8:55 AM 28.4 °F 21.2 °F 19.4 °F 69% 30.20 in 10.0 mi South 6.9 mph - N/A   Clear
9:15 AM 30.2 °F 22.6 °F 19.4 °F 64% 30.19 in 10.0 mi SSE 8.1 mph - N/A   Clear
9:35 AM 33.8 °F 26.4 °F 21.2 °F 60% 30.19 in 10.0 mi SSE 9.2 mph - N/A   Clear
9:55 AM 35.6 °F 28.0 °F 21.2 °F 56% 30.19 in 10.0 mi South 10.4 mph - N/A   Clear
10:15 AM 37.4 °F 30.3 °F 21.2 °F 52% 30.18 in 10.0 mi South 10.4 mph - N/A   Clear
10:35 AM 39.2 °F 32.0 °F 24.8 °F 56% 30.17 in 10.0 mi South 11.5 mph - N/A   Clear
10:55 AM 41.0 °F 34.7 °F 24.8 °F 53% 30.17 in 10.0 mi South 10.4 mph - N/A   Clear
11:15 AM 44.6 °F 38.8 °F 26.6 °F 49% 30.15 in 10.0 mi South 11.5 mph - N/A   Clear
11:35 AM 46.4 °F 40.1 °F 26.6 °F 46% 30.14 in 10.0 mi SSW 15.0 mph - N/A   Clear
11:55 AM 48.2 °F - 26.6 °F 43% 30.12 in 10.0 mi SSW 15.0 mph 20.7 mph N/A   Clear
12:15 PM 55.4 °F - 30.2 °F 38% 30.11 in 10.0 mi SW 16.1 mph 25.3 mph N/A   Clear
12:35 PM 57.2 °F - 30.2 °F 36% 30.09 in 10.0 mi SW 21.9 mph 28.8 mph N/A   Clear
12:55 PM 59.0 °F - 28.4 °F 31% 30.06 in 10.0 mi SW 25.3 mph 28.8 mph N/A   Clear
1:15 PM 59.0 °F - 26.6 °F 29% 30.04 in 10.0 mi SW 21.9 mph 27.6 mph N/A   Clear
1:35 PM 60.8 °F - 26.6 °F 27% 30.02 in 10.0 mi SSW 24.2 mph - N/A   Clear
1:55 PM 62.6 °F - 26.6 °F 26% 30.00 in 10.0 mi SSW 27.6 mph 32.2 mph N/A   Clear
2:15 PM 62.6 °F - 24.8 °F 24% 29.98 in 10.0 mi SW 25.3 mph 33.4 mph N/A   Clear
2:35 PM 62.6 °F - 23.0 °F 22% 29.97 in 10.0 mi SSW 26.5 mph 34.5 mph N/A   Clear
2:55 PM 62.6 °F - 21.2 °F 20% 29.96 in 10.0 mi SSW 27.6 mph 32.2 mph N/A   Clear
3:15 PM 60.8 °F - 21.2 °F 22% 29.94 in 10.0 mi SSW 25.3 mph 33.4 mph N/A   Clear
3:35 PM 60.8 °F - 21.2 °F 22% 29.93 in 10.0 mi SSW 23.0 mph 31.1 mph N/A   Clear
3:55 PM 60.8 °F - 21.2 °F 22% 29.92 in 10.0 mi SSW 18.4 mph 31.1 mph N/A   Clear
4:15 PM 60.8 °F - 21.2 °F 22% 29.91 in 10.0 mi SSW 25.3 mph 31.1 mph N/A   Clear
4:35 PM 60.8 °F - 21.2 °F 22% 29.90 in 10.0 mi South 23.0 mph 27.6 mph N/A   Clear
4:55 PM 60.8 °F - 21.2 °F 22% 29.90 in 10.0 mi SSW 21.9 mph 27.6 mph N/A   Clear
5:15 PM 59.0 °F - 21.2 °F 23% 29.89 in 10.0 mi SSW 17.3 mph 24.2 mph N/A   Clear
5:35 PM 57.2 °F - 21.2 °F 25% 29.88 in 10.0 mi SSW 19.6 mph 26.5 mph N/A   Clear
5:55 PM 57.2 °F - 21.2 °F 25% 29.88 in 10.0 mi SSW 17.3 mph - N/A   Clear
6:15 PM 55.4 °F - 21.2 °F 26% 29.88 in 10.0 mi South 15.0 mph 20.7 mph N/A   Clear
6:35 PM 53.6 °F - 21.2 °F 28% 29.87 in 10.0 mi South 13.8 mph - N/A   Clear
6:55 PM 53.6 °F - 21.2 °F 28% 29.87 in 10.0 mi South 12.7 mph - N/A   Clear
7:15 PM 51.8 °F - 19.4 °F 28% 29.86 in 10.0 mi South 12.7 mph - N/A   Clear
7:35 PM 50.0 °F - 21.2 °F 32% 29.85 in 10.0 mi South 13.8 mph - N/A   Clear
7:55 PM 51.8 °F - 21.2 °F 30% 29.85 in 10.0 mi SSW 12.7 mph - N/A   Clear
8:15 PM 51.8 °F - 23.0 °F 33% 29.85 in 10.0 mi SSW 13.8 mph - N/A   Clear
8:35 PM 51.8 °F - 23.0 °F 33% 29.85 in 10.0 mi SSW 11.5 mph - N/A   Clear
8:55 PM 51.8 °F - 23.0 °F 33% 29.85 in 10.0 mi SSW 11.5 mph - N/A   Clear
9:15 PM 50.0 °F - 23.0 °F 35% 29.84 in 10.0 mi SSW 15.0 mph 18.4 mph N/A   Clear
9:35 PM 50.0 °F - 23.0 °F 35% 29.84 in 10.0 mi SSW 10.4 mph - N/A   Clear
9:55 PM 48.2 °F - 23.0 °F 37% 29.84 in 10.0 mi SSW 9.2 mph - N/A   Clear
10:15 PM 46.4 °F 44.3 °F 23.0 °F 40% 29.84 in 10.0 mi WSW 4.6 mph - N/A   Clear
10:35 PM 42.8 °F 38.0 °F 19.4 °F 39% 29.84 in 10.0 mi NW 8.1 mph - N/A   Clear
10:55 PM 42.8 °F 38.6 °F 21.2 °F 42% 29.84 in 10.0 mi NW 6.9 mph - N/A   Clear
11:15 PM 42.8 °F 39.3 °F 21.2 °F 42% 29.83 in 10.0 mi NNW 5.8 mph - N/A   Clear
11:35 PM 41.0 °F - 21.2 °F 45% 29.83 in 10.0 mi Calm Calm - N/A   Clear
11:55 PM 39.2 °F - 19.4 °F 45% 29.83 in 10.0 mi Calm Calm - N/A   Clear